Time,TemperatureF,DewpointF,PressureIn,WindDirection,WindDirectionDegrees,WindSpeedMPH,WindSpeedGustMPH,Humidity,HourlyPrecipIn,Conditions,Clouds,dailyrainin,SoftwareType,DateUTC
2013-06-03 00:02:00,67.8,30.7,29.71,NNE,22,1.6,2.2,25,0.00,,,0.00,meteobridge,2013-06-02 21:02:00,
2013-06-03 00:07:00,67.8,30.7,29.71,North,0,2.0,2.0,25,0.00,,,0.00,meteobridge,2013-06-02 21:07:00,
2013-06-03 00:12:00,67.8,31.8,29.71,ENE,68,1.1,2.0,26,0.00,,,0.00,meteobridge,2013-06-02 21:12:00,
2013-06-03 00:17:00,67.6,31.6,29.71,NNE,22,1.6,2.0,26,0.00,,,0.00,meteobridge,2013-06-02 21:17:00,
2013-06-03 00:23:00,67.6,31.6,29.71,North,0,1.6,2.7,26,0.00,,,0.00,meteobridge,2013-06-02 21:23:00,
2013-06-03 00:28:00,67.6,32.5,29.71,North,0,1.3,1.6,27,0.00,,,0.00,meteobridge,2013-06-02 21:28:00,
2013-06-03 00:33:00,67.5,32.4,29.71,NNE,22,0.0,1.1,27,0.00,,,0.00,meteobridge,2013-06-02 21:33:00,
2013-06-03 00:38:00,67.5,32.4,29.71,NE,45,0.0,0.9,27,0.00,,,0.00,meteobridge,2013-06-02 21:38:00,
2013-06-03 00:43:00,67.3,33.1,29.71,NNE,22,2.0,2.5,28,0.00,,,0.00,meteobridge,2013-06-02 21:43:00,
2013-06-03 00:48:00,67.1,32.9,29.71,NE,45,0.0,1.6,28,0.00,,,0.00,meteobridge,2013-06-02 21:48:00,
2013-06-03 00:53:00,66.9,32.7,29.71,NNE,22,0.0,1.1,28,0.00,,,0.00,meteobridge,2013-06-02 21:53:00,
2013-06-03 00:58:00,66.9,32.7,29.71,NNE,22,0.9,1.3,28,0.00,,,0.00,meteobridge,2013-06-02 21:58:00,
2013-06-03 01:03:00,66.9,33.6,29.71,North,0,1.6,2.0,29,0.00,,,0.00,meteobridge,2013-06-02 22:03:00,
2013-06-03 01:08:00,66.9,33.6,29.71,North,0,0.0,1.3,29,0.00,,,0.00,meteobridge,2013-06-02 22:08:00,
2013-06-03 01:13:00,66.7,33.4,29.71,NNE,22,0.0,1.6,29,0.00,,,0.00,meteobridge,2013-06-02 22:13:00,
2013-06-03 01:18:00,66.6,33.4,29.71,SE,135,1.3,1.6,29,0.00,,,0.00,meteobridge,2013-06-02 22:18:00,
2013-06-03 01:23:00,66.6,33.4,29.74,SE,135,0.9,1.1,29,0.00,,,0.00,meteobridge,2013-06-02 22:23:00,
2013-06-03 01:28:00,66.4,33.3,29.74,ESE,112,0.0,0.9,29,0.00,,,0.00,meteobridge,2013-06-02 22:28:00,
2013-06-03 01:33:00,66.2,34.0,29.74,ESE,112,0.0,0.9,30,0.00,,,0.00,meteobridge,2013-06-02 22:33:00,
2013-06-03 01:38:00,66.2,34.7,29.74,SSE,158,2.7,3.8,31,0.00,,,0.00,meteobridge,2013-06-02 22:38:00,
2013-06-03 01:44:00,66.0,35.4,29.74,SE,135,0.0,0.0,32,0.00,,,0.00,meteobridge,2013-06-02 22:44:00,
2013-06-03 01:49:00,65.8,34.3,29.74,East,90,1.6,1.6,31,0.00,,,0.00,meteobridge,2013-06-02 22:49:00,
2013-06-03 01:54:00,65.8,34.3,29.71,ENE,68,0.0,0.9,31,0.00,,,0.00,meteobridge,2013-06-02 22:54:00,
2013-06-03 01:59:00,65.7,34.2,29.71,ENE,68,0.0,0.0,31,0.00,,,0.00,meteobridge,2013-06-02 22:59:00,
2013-06-03 02:04:00,65.7,35.1,29.71,ENE,68,1.1,1.3,32,0.00,,,0.00,meteobridge,2013-06-02 23:04:00,
2013-06-03 02:10:00,65.7,35.8,29.71,ESE,112,1.3,2.0,33,0.00,,,0.00,meteobridge,2013-06-02 23:10:00,
2013-06-03 02:15:00,65.7,35.8,29.71,NNE,22,1.1,1.6,33,0.00,,,0.00,meteobridge,2013-06-02 23:15:00,
2013-06-03 02:20:00,65.5,35.6,29.71,ENE,68,0.0,0.0,33,0.00,,,0.00,meteobridge,2013-06-02 23:20:00,
2013-06-03 02:25:00,65.5,35.6,29.71,East,90,0.9,1.1,33,0.00,,,0.00,meteobridge,2013-06-02 23:25:00,
2013-06-03 02:30:00,65.5,35.6,29.71,East,90,0.0,0.0,33,0.00,,,0.00,meteobridge,2013-06-02 23:30:00,
2013-06-03 02:35:00,65.3,35.4,29.71,East,90,0.0,0.0,33,0.00,,,0.00,meteobridge,2013-06-02 23:35:00,
2013-06-03 02:40:00,65.3,35.4,29.71,East,90,0.0,0.0,33,0.00,,,0.00,meteobridge,2013-06-02 23:40:00,
2013-06-03 02:45:00,65.1,35.4,29.71,SE,135,0.0,1.3,33,0.00,,,0.00,meteobridge,2013-06-02 23:45:00,
2013-06-03 02:50:00,65.5,35.6,29.71,NNE,22,1.1,1.6,33,0.00,,,0.00,meteobridge,2013-06-02 23:50:00,
2013-06-03 02:55:00,65.5,35.6,29.74,NNE,22,2.0,2.0,33,0.00,,,0.00,meteobridge,2013-06-02 23:55:00,
2013-06-03 03:00:00,65.3,35.4,29.74,NNE,22,1.1,1.3,33,0.00,,,0.00,meteobridge,2013-06-03 00:00:00,
2013-06-03 03:05:00,65.3,35.4,29.74,North,0,1.1,1.1,33,0.00,,,0.00,meteobridge,2013-06-03 00:05:00,
2013-06-03 03:10:00,65.1,35.4,29.74,North,0,0.9,1.3,33,0.00,,,0.00,meteobridge,2013-06-03 00:10:00,
2013-06-03 03:15:00,64.9,35.2,29.74,NNE,22,1.1,1.6,33,0.00,,,0.00,meteobridge,2013-06-03 00:15:00,
2013-06-03 03:20:00,64.8,35.8,29.74,North,0,1.6,2.2,34,0.00,,,0.00,meteobridge,2013-06-03 00:20:00,
2013-06-03 03:25:00,64.6,35.6,29.71,North,0,1.3,2.2,34,0.00,,,0.00,meteobridge,2013-06-03 00:25:00,
2013-06-03 03:30:00,64.4,35.4,29.71,North,0,0.0,0.0,34,0.00,,,0.00,meteobridge,2013-06-03 00:30:00,
2013-06-03 03:35:00,64.0,35.1,29.71,North,0,0.0,0.0,34,0.00,,,0.00,meteobridge,2013-06-03 00:35:00,
2013-06-03 03:40:00,64.0,35.1,29.71,North,0,1.1,1.3,34,0.00,,,0.00,meteobridge,2013-06-03 00:40:00,
2013-06-03 03:47:00,63.9,35.1,29.71,North,0,0.0,-999.0,34,0.00,,,0.00,meteobridge,2013-06-03 00:47:00,
2013-06-03 03:52:00,64.2,36.0,29.71,NNE,22,0.0,0.0,35,0.00,,,0.00,meteobridge,2013-06-03 00:52:00,
2013-06-03 03:57:00,64.2,36.0,29.71,North,0,1.3,1.6,35,0.00,,,0.00,meteobridge,2013-06-03 00:57:00,
2013-06-03 04:02:00,64.2,36.0,29.71,North,0,0.0,1.3,35,0.00,,,0.00,meteobridge,2013-06-03 01:02:00,
2013-06-03 04:07:00,64.0,36.0,29.71,NNE,22,1.3,2.0,35,0.00,,,0.00,meteobridge,2013-06-03 01:07:00,
2013-06-03 04:12:00,63.9,35.8,29.71,NNE,22,1.6,2.2,35,0.00,,,0.00,meteobridge,2013-06-03 01:12:00,
2013-06-03 04:17:00,63.7,35.6,29.71,NNE,22,0.9,1.6,35,0.00,,,0.00,meteobridge,2013-06-03 01:17:00,
2013-06-03 04:22:00,63.5,35.4,29.71,NNE,22,1.1,1.1,35,0.00,,,0.00,meteobridge,2013-06-03 01:22:00,
2013-06-03 04:27:00,63.3,35.2,29.71,NNE,22,0.0,0.0,35,0.00,,,0.00,meteobridge,2013-06-03 01:27:00,
2013-06-03 04:33:00,63.3,35.2,29.71,NNE,22,0.0,0.9,35,0.00,,,0.00,meteobridge,2013-06-03 01:33:00,
2013-06-03 04:38:00,63.1,35.1,29.71,NNE,22,0.9,1.3,35,0.00,,,0.00,meteobridge,2013-06-03 01:38:00,
2013-06-03 04:43:00,63.1,35.1,29.71,NNE,22,0.0,0.0,35,0.00,,,0.00,meteobridge,2013-06-03 01:43:00,
2013-06-03 04:49:00,63.1,35.1,29.71,NNE,22,0.0,0.0,35,0.00,,,0.00,meteobridge,2013-06-03 01:49:00,
2013-06-03 04:55:00,63.0,34.9,29.71,NNE,22,0.0,0.0,35,0.00,,,0.00,meteobridge,2013-06-03 01:55:00,
2013-06-03 05:00:00,63.0,34.9,29.71,NNE,22,1.6,2.0,35,0.00,,,0.00,meteobridge,2013-06-03 02:00:00,
2013-06-03 05:05:00,63.0,34.9,29.71,NNE,22,0.0,0.0,35,0.00,,,0.00,meteobridge,2013-06-03 02:05:00,
2013-06-03 05:10:00,63.0,35.6,29.71,NNE,22,0.0,0.0,36,0.00,,,0.00,meteobridge,2013-06-03 02:10:00,
2013-06-03 05:15:00,62.8,35.4,29.71,NNE,22,0.0,0.9,36,0.00,,,0.00,meteobridge,2013-06-03 02:15:00,
2013-06-03 05:20:00,62.8,35.4,29.71,NNE,22,1.3,1.3,36,0.00,,,0.00,meteobridge,2013-06-03 02:20:00,
2013-06-03 05:25:00,62.6,35.2,29.74,NNE,22,0.0,0.0,36,0.00,,,0.00,meteobridge,2013-06-03 02:25:00,
2013-06-03 05:30:00,62.6,35.2,29.74,NNE,22,0.0,0.0,36,0.00,,,0.00,meteobridge,2013-06-03 02:30:00,
2013-06-03 05:36:00,62.4,35.2,29.74,NNE,22,1.3,1.3,36,0.00,,,0.00,meteobridge,2013-06-03 02:36:00,
2013-06-03 05:41:00,62.4,35.2,29.74,NNE,22,1.1,1.3,36,0.00,,,0.00,meteobridge,2013-06-03 02:41:00,
2013-06-03 05:46:00,62.2,35.1,29.74,NNE,22,0.9,1.3,36,0.00,,,0.00,meteobridge,2013-06-03 02:46:00,
2013-06-03 05:51:00,62.2,35.1,29.74,NNE,22,0.9,1.3,36,0.00,,,0.00,meteobridge,2013-06-03 02:51:00,
2013-06-03 05:56:00,62.2,35.6,29.74,NNE,22,0.0,0.0,37,0.00,,,0.00,meteobridge,2013-06-03 02:56:00,
2013-06-03 06:01:00,62.2,35.1,29.74,NNE,22,0.0,0.0,36,0.00,,,0.00,meteobridge,2013-06-03 03:01:00,
2013-06-03 06:06:00,62.2,35.6,29.74,NNE,22,1.1,1.6,37,0.00,,,0.00,meteobridge,2013-06-03 03:06:00,
2013-06-03 06:12:00,62.2,35.6,29.74,NNE,22,0.9,0.9,37,0.00,,,0.00,meteobridge,2013-06-03 03:12:00,
2013-06-03 06:17:00,62.2,35.6,29.74,NNE,22,0.0,0.0,37,0.00,,,0.00,meteobridge,2013-06-03 03:17:00,
2013-06-03 06:22:00,62.2,35.6,29.74,NNE,22,0.0,0.0,37,0.00,,,0.00,meteobridge,2013-06-03 03:22:00,
2013-06-03 06:27:00,62.4,35.8,29.74,NNE,22,0.0,0.0,37,0.00,,,0.00,meteobridge,2013-06-03 03:27:00,
2013-06-03 06:32:00,62.8,36.1,29.74,NNE,22,1.1,1.3,37,0.00,,,0.00,meteobridge,2013-06-03 03:32:00,
2013-06-03 06:37:00,63.1,36.5,29.74,NNE,22,0.0,0.9,37,0.00,,,0.00,meteobridge,2013-06-03 03:37:00,
2013-06-03 06:43:00,63.3,36.7,29.74,NNE,22,2.0,2.0,37,0.00,,,0.00,meteobridge,2013-06-03 03:43:00,
2013-06-03 06:48:00,63.7,37.0,29.74,NNE,22,0.9,0.9,37,0.00,,,0.00,meteobridge,2013-06-03 03:48:00,
2013-06-03 06:53:00,64.4,37.6,29.74,NNE,22,0.0,0.0,37,0.00,,,0.00,meteobridge,2013-06-03 03:53:00,
2013-06-03 06:58:00,65.5,38.5,29.74,NNE,22,0.0,0.0,37,0.00,,,0.00,meteobridge,2013-06-03 03:58:00,
2013-06-03 07:01:00,65.8,38.8,29.74,NNE,22,0.0,0.0,37,0.00,,,0.00,meteobridge,2013-06-03 04:01:00,
2013-06-03 07:02:00,65.8,38.8,29.74,NNE,22,1.3,1.3,37,0.00,,,0.00,meteobridge,2013-06-03 04:02:00,
2013-06-03 07:03:00,66.4,38.7,29.74,NNE,22,1.3,2.0,36,0.00,,,0.00,meteobridge,2013-06-03 04:03:00,
2013-06-03 07:08:00,67.6,39.7,29.74,North,0,0.9,1.1,36,0.00,,,0.00,meteobridge,2013-06-03 04:08:00,
2013-06-03 07:13:00,69.4,40.6,29.74,North,0,0.0,0.0,35,0.00,,,0.00,meteobridge,2013-06-03 04:13:00,
2013-06-03 07:18:00,71.1,40.5,29.74,North,0,1.3,1.3,33,0.00,,,0.00,meteobridge,2013-06-03 04:18:00,
2013-06-03 07:23:00,72.1,39.9,29.74,NNE,22,1.1,1.1,31,0.00,,,0.00,meteobridge,2013-06-03 04:23:00,
2013-06-03 07:28:00,73.0,38.1,29.74,West,270,0.9,2.2,28,0.00,,,0.00,meteobridge,2013-06-03 04:28:00,
2013-06-03 07:33:00,73.8,36.9,29.74,NNE,22,1.6,2.0,26,0.00,,,0.00,meteobridge,2013-06-03 04:33:00,
2013-06-03 07:38:00,74.7,36.5,29.74,SE,135,1.6,2.5,25,0.00,,,0.00,meteobridge,2013-06-03 04:38:00,
2013-06-03 07:43:00,75.6,35.2,29.74,East,90,0.0,1.1,23,0.00,,,0.00,meteobridge,2013-06-03 04:43:00,
2013-06-03 07:48:00,75.6,34.2,29.74,North,0,2.0,2.7,22,0.00,,,0.00,meteobridge,2013-06-03 04:48:00,
2013-06-03 07:53:00,76.1,34.5,29.74,South,180,2.0,2.0,22,0.00,,,0.00,meteobridge,2013-06-03 04:53:00,
2013-06-03 07:58:00,76.3,34.7,29.74,East,90,1.3,2.2,22,0.00,,,0.00,meteobridge,2013-06-03 04:58:00,
2013-06-03 08:04:00,76.5,34.9,29.74,ENE,68,1.3,1.3,22,0.00,,,0.00,meteobridge,2013-06-03 05:04:00,
2013-06-03 08:09:00,77.4,34.3,29.74,South,180,2.7,2.9,21,0.00,,,0.00,meteobridge,2013-06-03 05:09:00,
2013-06-03 08:15:00,77.7,34.7,29.74,SSE,158,1.3,2.5,21,0.00,,,0.00,meteobridge,2013-06-03 05:15:00,
2013-06-03 08:20:00,77.9,34.9,29.74,NNW,338,1.6,2.9,21,0.00,,,0.00,meteobridge,2013-06-03 05:20:00,
2013-06-03 08:25:00,78.4,35.2,29.74,East,90,2.2,2.2,21,0.00,,,0.00,meteobridge,2013-06-03 05:25:00,
2013-06-03 08:30:00,79.2,34.7,29.74,NNE,22,1.1,1.1,20,0.00,,,0.00,meteobridge,2013-06-03 05:30:00,
2013-06-03 08:35:00,79.3,34.9,29.74,South,180,3.8,3.8,20,0.00,,,0.00,meteobridge,2013-06-03 05:35:00,
2013-06-03 08:40:00,80.2,35.6,29.74,South,180,1.6,1.6,20,0.00,,,0.00,meteobridge,2013-06-03 05:40:00,
2013-06-03 08:45:00,79.9,35.2,29.74,North,0,1.1,2.9,20,0.00,,,0.00,meteobridge,2013-06-03 05:45:00,
2013-06-03 08:50:00,80.4,35.8,29.74,SSE,158,3.4,4.3,20,0.00,,,0.00,meteobridge,2013-06-03 05:50:00,
2013-06-03 08:55:00,80.1,35.4,29.74,WNW,292,0.9,2.2,20,0.00,,,0.00,meteobridge,2013-06-03 05:55:00,
2013-06-03 09:01:00,81.0,34.9,29.74,SSE,158,1.6,2.0,19,0.00,,,0.00,meteobridge,2013-06-03 06:01:00,
2013-06-03 09:06:00,81.1,32.2,29.74,East,90,1.1,2.7,17,0.00,,,0.00,meteobridge,2013-06-03 06:06:00,
2013-06-03 09:11:00,80.8,32.0,29.74,SSE,158,2.7,5.4,17,0.00,,,0.00,meteobridge,2013-06-03 06:11:00,
2013-06-03 09:16:00,81.0,32.2,29.74,SE,135,2.5,3.8,17,0.00,,,0.00,meteobridge,2013-06-03 06:16:00,
2013-06-03 09:21:00,81.7,32.7,29.74,WNW,292,2.9,3.6,17,0.00,,,0.00,meteobridge,2013-06-03 06:21:00,
2013-06-03 09:26:00,81.5,32.5,29.74,SE,135,0.9,2.0,17,0.00,,,0.00,meteobridge,2013-06-03 06:26:00,
2013-06-03 09:32:00,81.9,32.9,29.74,North,0,1.6,3.4,17,0.00,,,0.00,meteobridge,2013-06-03 06:32:00,
2013-06-03 09:37:00,82.2,33.1,29.74,NW,315,1.3,2.2,17,0.00,,,0.00,meteobridge,2013-06-03 06:37:00,
2013-06-03 09:42:00,82.9,32.2,29.74,SSE,158,2.7,3.4,16,0.00,,,0.00,meteobridge,2013-06-03 06:42:00,
2013-06-03 09:47:00,82.6,31.8,29.74,North,0,1.6,2.5,16,0.00,,,0.00,meteobridge,2013-06-03 06:47:00,
2013-06-03 09:52:00,83.3,32.5,29.74,WNW,292,1.3,2.0,16,0.00,,,0.00,meteobridge,2013-06-03 06:52:00,
2013-06-03 09:57:00,83.1,32.4,29.74,SE,135,3.8,4.9,16,0.00,,,0.00,meteobridge,2013-06-03 06:57:00,
2013-06-03 10:02:00,83.7,32.7,29.74,NE,45,2.5,2.7,16,0.00,,,0.00,meteobridge,2013-06-03 07:02:00,
2013-06-03 10:07:00,83.1,32.4,29.74,East,90,2.0,2.7,16,0.00,,,0.00,meteobridge,2013-06-03 07:07:00,
2013-06-03 10:12:00,83.8,32.9,29.74,SSE,158,2.7,3.4,16,0.00,,,0.00,meteobridge,2013-06-03 07:12:00,
2013-06-03 10:17:00,84.2,28.0,29.74,SE,135,2.9,2.9,13,0.00,,,0.00,meteobridge,2013-06-03 07:17:00,
2013-06-03 10:22:00,84.7,28.6,29.74,ENE,68,1.3,3.6,13,0.00,,,0.00,meteobridge,2013-06-03 07:22:00,
2013-06-03 10:28:00,84.9,28.6,29.74,SSE,158,2.5,2.9,13,0.00,,,0.00,meteobridge,2013-06-03 07:28:00,
2013-06-03 10:33:00,85.6,29.3,29.74,SSE,158,2.9,3.4,13,0.00,,,0.00,meteobridge,2013-06-03 07:33:00,
2013-06-03 10:38:00,85.1,28.8,29.74,North,0,2.7,3.4,13,0.00,,,0.00,meteobridge,2013-06-03 07:38:00,
2013-06-03 10:43:00,85.6,29.3,29.74,WSW,248,0.9,1.6,13,0.00,,,0.00,meteobridge,2013-06-03 07:43:00,
2013-06-03 10:48:00,85.6,29.3,29.74,SSE,158,2.0,4.3,13,0.00,,,0.00,meteobridge,2013-06-03 07:48:00,
2013-06-03 10:53:00,85.3,28.9,29.74,East,90,2.5,2.7,13,0.00,,,0.00,meteobridge,2013-06-03 07:53:00,
2013-06-03 10:58:00,85.5,29.1,29.74,ESE,112,1.1,4.0,13,0.00,,,0.00,meteobridge,2013-06-03 07:58:00,
2013-06-03 11:03:00,85.5,29.1,29.74,SE,135,2.0,3.6,13,0.00,,,0.00,meteobridge,2013-06-03 08:03:00,
2013-06-03 11:08:00,85.8,29.3,29.74,NW,315,1.6,5.4,13,0.00,,,0.00,meteobridge,2013-06-03 08:08:00,
2013-06-03 11:13:00,85.8,29.3,29.74,WNW,292,2.0,3.4,13,0.00,,,0.00,meteobridge,2013-06-03 08:13:00,
2013-06-03 11:18:00,86.5,29.8,29.74,SSW,202,3.8,4.5,13,0.00,,,0.00,meteobridge,2013-06-03 08:18:00,
2013-06-03 11:23:00,86.7,30.0,29.77,SW,225,2.0,4.0,13,0.00,,,0.00,meteobridge,2013-06-03 08:23:00,
2013-06-03 11:28:00,86.4,29.8,29.77,SE,135,7.2,7.4,13,0.00,,,0.00,meteobridge,2013-06-03 08:28:00,
2013-06-03 11:33:00,86.0,29.5,29.77,SSE,158,2.7,3.8,13,0.00,,,0.00,meteobridge,2013-06-03 08:33:00,
2013-06-03 11:38:00,85.8,29.3,29.74,South,180,8.1,8.1,13,0.00,,,0.00,meteobridge,2013-06-03 08:38:00,
2013-06-03 11:43:00,86.2,29.7,29.74,ENE,68,2.5,2.9,13,0.00,,,0.00,meteobridge,2013-06-03 08:43:00,
2013-06-03 11:48:00,85.8,29.3,29.74,East,90,2.0,5.4,13,0.00,,,0.00,meteobridge,2013-06-03 08:48:00,
2013-06-03 11:53:00,86.7,30.0,29.77,ESE,112,3.1,3.1,13,0.00,,,0.00,meteobridge,2013-06-03 08:53:00,
2013-06-03 11:58:00,87.1,30.4,29.77,SSW,202,3.6,3.6,13,0.00,,,0.00,meteobridge,2013-06-03 08:58:00,
2013-06-03 12:04:00,87.1,30.4,29.77,ESE,112,4.0,4.0,13,0.00,,,0.00,meteobridge,2013-06-03 09:04:00,
2013-06-03 12:09:00,86.5,29.8,29.77,SSE,158,1.1,2.7,13,0.00,,,0.00,meteobridge,2013-06-03 09:09:00,
2013-06-03 12:14:00,87.1,30.4,29.77,NNW,338,2.2,3.1,13,0.00,,,0.00,meteobridge,2013-06-03 09:14:00,
2013-06-03 12:19:00,87.3,30.6,29.77,West,270,3.8,4.0,13,0.00,,,0.00,meteobridge,2013-06-03 09:19:00,
2013-06-03 12:24:00,87.1,30.4,29.77,SE,135,2.7,6.0,13,0.00,,,0.00,meteobridge,2013-06-03 09:24:00,
2013-06-03 12:29:00,87.1,30.4,29.77,SSW,202,7.8,7.8,13,0.00,,,0.00,meteobridge,2013-06-03 09:29:00,
2013-06-03 12:34:00,86.7,30.0,29.77,East,90,2.5,4.3,13,0.00,,,0.00,meteobridge,2013-06-03 09:34:00,
2013-06-03 12:39:00,87.4,30.6,29.77,WSW,248,2.5,3.1,13,0.00,,,0.00,meteobridge,2013-06-03 09:39:00,
2013-06-03 12:44:00,86.9,30.2,29.77,North,0,2.2,4.7,13,0.00,,,0.00,meteobridge,2013-06-03 09:44:00,
2013-06-03 12:49:00,87.1,30.4,29.77,West,270,2.5,3.8,13,0.00,,,0.00,meteobridge,2013-06-03 09:49:00,
2013-06-03 12:54:00,86.9,30.2,29.77,ENE,68,3.1,3.4,13,0.00,,,0.00,meteobridge,2013-06-03 09:54:00,
2013-06-03 12:59:00,86.4,29.8,29.77,East,90,2.5,5.4,13,0.00,,,0.00,meteobridge,2013-06-03 09:59:00,
2013-06-03 13:04:00,86.0,29.5,29.77,North,0,2.0,3.6,13,0.00,,,0.00,meteobridge,2013-06-03 10:04:00,
2013-06-03 13:09:00,86.2,29.7,29.77,SW,225,3.4,4.7,13,0.00,,,0.00,meteobridge,2013-06-03 10:09:00,
2013-06-03 13:14:00,86.5,29.8,29.77,NNE,22,2.0,3.1,13,0.00,,,0.00,meteobridge,2013-06-03 10:14:00,
2013-06-03 13:20:00,86.2,29.7,29.77,North,0,2.5,2.5,13,0.00,,,0.00,meteobridge,2013-06-03 10:20:00,
2013-06-03 13:25:00,85.5,29.1,29.77,NNW,338,3.8,5.8,13,0.00,,,0.00,meteobridge,2013-06-03 10:25:00,
2013-06-03 13:30:00,85.6,29.3,29.77,South,180,3.1,6.5,13,0.00,,,0.00,meteobridge,2013-06-03 10:30:00,
2013-06-03 13:35:00,85.3,28.9,29.77,South,180,2.7,4.0,13,0.00,,,0.00,meteobridge,2013-06-03 10:35:00,
2013-06-03 13:40:00,86.4,29.8,29.77,NE,45,3.8,3.8,13,0.00,,,0.00,meteobridge,2013-06-03 10:40:00,
2013-06-03 13:45:00,86.7,30.0,29.77,South,180,2.7,3.4,13,0.00,,,0.00,meteobridge,2013-06-03 10:45:00,
2013-06-03 13:50:00,86.7,30.0,29.77,SSW,202,3.4,3.4,13,0.00,,,0.00,meteobridge,2013-06-03 10:50:00,
2013-06-03 13:55:00,87.6,30.7,29.77,NNE,22,2.7,3.4,13,0.00,,,0.00,meteobridge,2013-06-03 10:55:00,
2013-06-03 14:00:00,87.1,30.4,29.77,WNW,292,3.6,3.6,13,0.00,,,0.00,meteobridge,2013-06-03 11:00:00,
2013-06-03 14:05:00,86.9,30.2,29.77,SSW,202,1.1,3.4,13,0.00,,,0.00,meteobridge,2013-06-03 11:05:00,
2013-06-03 14:10:00,86.5,29.8,29.77,ENE,68,2.9,7.2,13,0.00,,,0.00,meteobridge,2013-06-03 11:10:00,
2013-06-03 14:15:00,87.1,30.4,29.77,WSW,248,4.0,4.0,13,0.00,,,0.00,meteobridge,2013-06-03 11:15:00,
2013-06-03 14:20:00,86.7,30.0,29.77,NNW,338,2.7,3.4,13,0.00,,,0.00,meteobridge,2013-06-03 11:20:00,
2013-06-03 14:25:00,86.5,29.8,29.77,NNW,338,1.6,3.6,13,0.00,,,0.00,meteobridge,2013-06-03 11:25:00,
2013-06-03 14:30:00,86.7,30.0,29.77,NNW,338,2.0,3.6,13,0.00,,,0.00,meteobridge,2013-06-03 11:30:00,
2013-06-03 14:35:00,86.4,29.8,29.77,WSW,248,2.0,4.7,13,0.00,,,0.00,meteobridge,2013-06-03 11:35:00,
2013-06-03 14:40:00,86.4,29.8,29.77,SSE,158,2.9,5.4,13,0.00,,,0.00,meteobridge,2013-06-03 11:40:00,
2013-06-03 14:45:00,86.7,30.0,29.77,WNW,292,2.9,4.3,13,0.00,,,0.00,meteobridge,2013-06-03 11:45:00,
2013-06-03 14:50:00,87.1,30.4,29.77,SE,135,3.1,3.8,13,0.00,,,0.00,meteobridge,2013-06-03 11:50:00,
2013-06-03 14:55:00,87.3,30.6,29.77,WNW,292,2.0,3.1,13,0.00,,,0.00,meteobridge,2013-06-03 11:55:00,
2013-06-03 15:00:00,86.9,30.2,29.77,East,90,2.7,3.4,13,0.00,,,0.00,meteobridge,2013-06-03 12:00:00,
2013-06-03 15:05:00,87.6,30.7,29.77,North,0,4.9,4.9,13,0.00,,,0.00,meteobridge,2013-06-03 12:05:00,
2013-06-03 15:10:00,86.5,29.8,29.77,SE,135,2.9,3.8,13,0.00,,,0.00,meteobridge,2013-06-03 12:10:00,
2013-06-03 15:15:00,86.0,29.5,29.77,SSW,202,2.0,6.5,13,0.00,,,0.00,meteobridge,2013-06-03 12:15:00,
2013-06-03 15:20:00,86.7,30.0,29.77,South,180,3.4,4.0,13,0.00,,,0.00,meteobridge,2013-06-03 12:20:00,
2013-06-03 15:25:00,85.8,29.3,29.77,South,180,4.9,4.9,13,0.00,,,0.00,meteobridge,2013-06-03 12:25:00,
2013-06-03 15:30:00,85.1,28.8,29.77,South,180,3.4,7.8,13,0.00,,,0.00,meteobridge,2013-06-03 12:30:00,
2013-06-03 15:35:00,84.6,28.4,29.74,SSE,158,7.8,7.8,13,0.00,,,0.00,meteobridge,2013-06-03 12:35:00,
2013-06-03 15:41:00,84.0,29.8,29.74,ENE,68,1.3,3.1,14,0.00,,,0.00,meteobridge,2013-06-03 12:41:00,
2013-06-03 15:46:00,84.7,28.6,29.74,SSE,158,2.7,6.0,13,0.00,,,0.00,meteobridge,2013-06-03 12:46:00,
2013-06-03 15:51:00,85.3,28.9,29.77,ESE,112,3.6,3.6,13,0.00,,,0.00,meteobridge,2013-06-03 12:51:00,
2013-06-03 15:56:00,85.3,28.9,29.77,South,180,2.0,6.3,13,0.00,,,0.00,meteobridge,2013-06-03 12:56:00,
2013-06-03 16:01:00,84.9,28.6,29.77,South,180,1.6,4.9,13,0.00,,,0.00,meteobridge,2013-06-03 13:01:00,
2013-06-03 16:06:00,84.7,28.6,29.77,North,0,1.6,2.0,13,0.00,,,0.00,meteobridge,2013-06-03 13:06:00,
2013-06-03 16:11:00,85.1,28.8,29.74,ESE,112,9.6,11.0,13,0.00,,,0.00,meteobridge,2013-06-03 13:11:00,
2013-06-03 16:16:00,84.7,28.6,29.74,WSW,248,2.0,2.7,13,0.00,,,0.00,meteobridge,2013-06-03 13:16:00,
2013-06-03 16:21:00,84.9,28.6,29.74,ESE,112,4.7,4.7,13,0.00,,,0.00,meteobridge,2013-06-03 13:21:00,
2013-06-03 16:26:00,85.1,28.8,29.74,SSW,202,6.5,6.5,13,0.00,,,0.00,meteobridge,2013-06-03 13:26:00,
2013-06-03 16:31:00,84.9,28.6,29.74,SE,135,3.1,5.6,13,0.00,,,0.00,meteobridge,2013-06-03 13:31:00,
2013-06-03 16:36:00,85.1,28.8,29.74,South,180,6.5,6.5,13,0.00,,,0.00,meteobridge,2013-06-03 13:36:00,
2013-06-03 16:41:00,84.6,28.4,29.74,ENE,68,2.0,4.3,13,0.00,,,0.00,meteobridge,2013-06-03 13:41:00,
2013-06-03 16:46:00,84.6,28.4,29.74,South,180,2.7,4.9,13,0.00,,,0.00,meteobridge,2013-06-03 13:46:00,
2013-06-03 16:51:00,84.0,29.8,29.74,NNW,338,2.5,7.4,14,0.00,,,0.00,meteobridge,2013-06-03 13:51:00,
2013-06-03 16:56:00,83.3,29.1,29.74,East,90,2.9,8.9,14,0.00,,,0.00,meteobridge,2013-06-03 13:56:00,
2013-06-03 17:01:00,83.3,29.1,29.74,NNW,338,3.4,3.4,14,0.00,,,0.00,meteobridge,2013-06-03 14:01:00,
2013-06-03 17:06:00,83.3,29.1,29.74,East,90,3.6,6.0,14,0.00,,,0.00,meteobridge,2013-06-03 14:06:00,
2013-06-03 17:11:00,82.9,28.9,29.74,South,180,3.1,4.9,14,0.00,,,0.00,meteobridge,2013-06-03 14:11:00,
2013-06-03 17:16:00,82.8,28.8,29.74,East,90,1.6,3.6,14,0.00,,,0.00,meteobridge,2013-06-03 14:16:00,
2013-06-03 17:22:00,83.1,32.4,29.74,SW,225,3.1,6.0,16,0.00,,,0.00,meteobridge,2013-06-03 14:22:00,
2013-06-03 17:27:00,82.6,36.1,29.74,SSE,158,3.1,10.5,19,0.00,,,0.00,meteobridge,2013-06-03 14:27:00,
2013-06-03 17:32:00,81.7,36.7,29.74,South,180,7.2,7.2,20,0.00,,,0.00,meteobridge,2013-06-03 14:32:00,
2013-06-03 17:37:00,81.1,36.3,29.74,West,270,3.4,9.6,20,0.00,,,0.00,meteobridge,2013-06-03 14:37:00,
2013-06-03 17:42:00,81.0,36.1,29.74,South,180,6.3,6.3,20,0.00,,,0.00,meteobridge,2013-06-03 14:42:00,
2013-06-03 17:47:00,80.8,36.0,29.74,SSE,158,2.7,6.3,20,0.00,,,0.00,meteobridge,2013-06-03 14:47:00,
2013-06-03 17:52:00,80.6,35.8,29.74,SSW,202,2.5,4.3,20,0.00,,,0.00,meteobridge,2013-06-03 14:52:00,
2013-06-03 17:57:00,80.2,35.6,29.74,NNE,22,1.6,5.4,20,0.00,,,0.00,meteobridge,2013-06-03 14:57:00,
2013-06-03 18:02:00,79.7,35.1,29.74,West,270,2.0,4.7,20,0.00,,,0.00,meteobridge,2013-06-03 15:02:00,
2013-06-03 18:07:00,79.7,36.3,29.74,South,180,3.4,4.0,21,0.00,,,0.00,meteobridge,2013-06-03 15:07:00,
2013-06-03 18:12:00,79.5,36.1,29.74,SSW,202,4.0,4.9,21,0.00,,,0.00,meteobridge,2013-06-03 15:12:00,
2013-06-03 18:17:00,79.2,36.0,29.74,SW,225,6.5,6.5,21,0.00,,,0.00,meteobridge,2013-06-03 15:17:00,
2013-06-03 18:22:00,79.0,34.5,29.74,North,0,3.8,8.7,20,0.00,,,0.00,meteobridge,2013-06-03 15:22:00,
2013-06-03 18:27:00,77.7,33.4,29.74,SSE,158,3.4,5.6,20,0.00,,,0.00,meteobridge,2013-06-03 15:27:00,
2013-06-03 18:32:00,77.4,33.3,29.74,NW,315,3.4,3.8,20,0.00,,,0.00,meteobridge,2013-06-03 15:32:00,
2013-06-03 18:39:00,77.0,32.9,29.74,NNW,338,4.0,-999.0,20,0.00,,,0.00,meteobridge,2013-06-03 15:39:00,
2013-06-03 18:44:00,76.1,33.4,29.74,ESE,112,5.8,6.9,21,0.00,,,0.00,meteobridge,2013-06-03 15:44:00,
2013-06-03 18:49:00,75.6,32.9,29.74,SE,135,10.1,10.1,21,0.00,,,0.00,meteobridge,2013-06-03 15:49:00,
2013-06-03 18:54:00,74.8,33.4,29.71,South,180,5.8,8.5,22,0.00,,,0.00,meteobridge,2013-06-03 15:54:00,
2013-06-03 18:59:00,74.5,33.3,29.71,South,180,5.4,7.8,22,0.00,,,0.00,meteobridge,2013-06-03 15:59:00,
2013-06-03 19:04:00,74.1,31.8,29.71,ESE,112,3.4,9.8,21,0.00,,,0.00,meteobridge,2013-06-03 16:04:00,
2013-06-03 19:09:00,73.9,31.6,29.74,South,180,5.8,8.1,21,0.00,,,0.00,meteobridge,2013-06-03 16:09:00,
2013-06-03 19:14:00,73.9,31.6,29.74,East,90,4.9,12.8,21,0.00,,,0.00,meteobridge,2013-06-03 16:14:00,
2013-06-03 19:19:00,73.8,31.5,29.74,South,180,2.0,4.9,21,0.00,,,0.00,meteobridge,2013-06-03 16:19:00,
2013-06-03 19:24:00,73.6,31.3,29.74,SSW,202,4.9,5.8,21,0.00,,,0.00,meteobridge,2013-06-03 16:24:00,
2013-06-03 19:29:00,73.8,31.5,29.74,SSW,202,4.0,7.8,21,0.00,,,0.00,meteobridge,2013-06-03 16:29:00,
2013-06-03 19:34:00,73.6,31.3,29.74,West,270,2.5,9.6,21,0.00,,,0.00,meteobridge,2013-06-03 16:34:00,
2013-06-03 19:39:00,73.4,31.1,29.74,WSW,248,2.0,6.7,21,0.00,,,0.00,meteobridge,2013-06-03 16:39:00,
2013-06-03 19:44:00,73.4,31.1,29.74,ESE,112,1.3,5.4,21,0.00,,,0.00,meteobridge,2013-06-03 16:44:00,
2013-06-03 19:50:00,73.2,32.2,29.74,SSE,158,5.8,5.8,22,0.00,,,0.00,meteobridge,2013-06-03 16:50:00,
2013-06-03 19:55:00,72.9,30.7,29.74,ESE,112,2.2,10.3,21,0.00,,,0.00,meteobridge,2013-06-03 16:55:00,
2013-06-03 20:00:00,72.9,30.7,29.74,ESE,112,5.6,5.6,21,0.00,,,0.00,meteobridge,2013-06-03 17:00:00,
2013-06-03 20:05:00,72.9,31.8,29.74,South,180,2.7,9.4,22,0.00,,,0.00,meteobridge,2013-06-03 17:05:00,
2013-06-03 20:10:00,72.7,31.6,29.74,SSE,158,3.8,3.8,22,0.00,,,0.00,meteobridge,2013-06-03 17:10:00,
2013-06-03 20:15:00,72.7,30.6,29.74,NW,315,2.7,3.1,21,0.00,,,0.00,meteobridge,2013-06-03 17:15:00,
2013-06-03 20:20:00,72.7,30.6,29.74,NNW,338,0.9,2.5,21,0.00,,,0.00,meteobridge,2013-06-03 17:20:00,
2013-06-03 20:25:00,72.7,30.6,29.74,West,270,2.0,2.0,21,0.00,,,0.00,meteobridge,2013-06-03 17:25:00,
2013-06-03 20:30:00,72.5,30.4,29.74,ESE,112,2.5,4.0,21,0.00,,,0.00,meteobridge,2013-06-03 17:30:00,
2013-06-03 20:36:00,72.5,30.4,29.74,SSE,158,0.9,2.9,21,0.00,,,0.00,meteobridge,2013-06-03 17:36:00,
2013-06-03 20:41:00,72.5,30.4,29.74,South,180,1.1,2.5,21,0.00,,,0.00,meteobridge,2013-06-03 17:41:00,
2013-06-03 20:46:00,72.5,30.4,29.74,ESE,112,1.3,2.9,21,0.00,,,0.00,meteobridge,2013-06-03 17:46:00,
2013-06-03 20:51:00,72.3,30.2,29.74,SSW,202,3.6,4.3,21,0.00,,,0.00,meteobridge,2013-06-03 17:51:00,
2013-06-03 20:56:00,72.3,30.2,29.74,ESE,112,1.1,2.2,21,0.00,,,0.00,meteobridge,2013-06-03 17:56:00,
2013-06-03 21:02:00,72.1,30.0,29.74,West,270,1.1,2.5,21,0.00,,,0.00,meteobridge,2013-06-03 18:02:00,
2013-06-03 21:07:00,72.1,31.3,29.74,SE,135,3.1,-999.0,22,0.00,,,0.00,meteobridge,2013-06-03 18:07:00,
2013-06-03 21:12:00,71.8,30.9,29.74,SSE,158,3.4,4.0,22,0.00,,,0.00,meteobridge,2013-06-03 18:12:00,
2013-06-03 21:18:00,71.6,29.7,29.74,SSE,158,3.8,6.3,21,0.00,,,0.00,meteobridge,2013-06-03 18:18:00,
2013-06-03 21:23:00,71.6,29.7,29.74,SW,225,1.3,5.4,21,0.00,,,0.00,meteobridge,2013-06-03 18:23:00,
2013-06-03 21:28:00,71.6,29.7,29.74,South,180,4.3,4.3,21,0.00,,,0.00,meteobridge,2013-06-03 18:28:00,
2013-06-03 21:33:00,71.4,30.6,29.74,NNW,338,1.1,1.6,22,0.00,,,0.00,meteobridge,2013-06-03 18:33:00,
2013-06-03 21:38:00,71.4,30.6,29.77,North,0,2.0,2.2,22,0.00,,,0.00,meteobridge,2013-06-03 18:38:00,
2013-06-03 21:43:00,71.6,29.7,29.77,SW,225,1.1,2.0,21,0.00,,,0.00,meteobridge,2013-06-03 18:43:00,
2013-06-03 21:48:00,71.4,30.6,29.77,NNW,338,1.3,2.0,22,0.00,,,0.00,meteobridge,2013-06-03 18:48:00,
2013-06-03 21:53:00,71.6,29.7,29.74,South,180,2.0,2.5,21,0.00,,,0.00,meteobridge,2013-06-03 18:53:00,
2013-06-03 21:58:00,71.4,30.6,29.74,East,90,1.3,2.9,22,0.00,,,0.00,meteobridge,2013-06-03 18:58:00,
2013-06-03 22:03:00,71.4,30.6,29.74,NNW,338,1.1,2.5,22,0.00,,,0.00,meteobridge,2013-06-03 19:03:00,
2013-06-03 22:08:00,71.4,27.1,29.77,NNE,22,1.3,1.6,19,0.00,,,0.00,meteobridge,2013-06-03 19:08:00,
2013-06-03 22:13:00,71.4,27.1,29.77,North,0,1.6,2.5,19,0.00,,,0.00,meteobridge,2013-06-03 19:13:00,
2013-06-03 22:18:00,71.4,27.1,29.77,NNW,338,0.9,1.1,19,0.00,,,0.00,meteobridge,2013-06-03 19:18:00,
2013-06-03 22:23:00,71.2,27.0,29.77,SSE,158,1.6,2.2,19,0.00,,,0.00,meteobridge,2013-06-03 19:23:00,
2013-06-03 22:28:00,71.4,27.1,29.77,NW,315,1.6,2.5,19,0.00,,,0.00,meteobridge,2013-06-03 19:28:00,
2013-06-03 22:33:00,71.4,27.1,29.77,SSE,158,1.1,2.7,19,0.00,,,0.00,meteobridge,2013-06-03 19:33:00,
2013-06-03 22:38:00,71.4,27.1,29.77,NNE,22,1.6,2.5,19,0.00,,,0.00,meteobridge,2013-06-03 19:38:00,
2013-06-03 22:43:00,71.2,27.0,29.77,SSE,158,1.6,2.7,19,0.00,,,0.00,meteobridge,2013-06-03 19:43:00,
2013-06-03 22:48:00,71.2,27.0,29.77,South,180,2.0,3.8,19,0.00,,,0.00,meteobridge,2013-06-03 19:48:00,
2013-06-03 22:53:00,71.2,27.0,29.77,WSW,248,0.0,1.3,19,0.00,,,0.00,meteobridge,2013-06-03 19:53:00,
2013-06-03 22:58:00,71.2,27.0,29.77,North,0,1.3,1.6,19,0.00,,,0.00,meteobridge,2013-06-03 19:58:00,
2013-06-03 23:04:00,71.2,27.0,29.77,NNW,338,0.9,2.5,19,0.00,,,0.00,meteobridge,2013-06-03 20:04:00,
2013-06-03 23:09:00,71.1,26.8,29.77,North,0,0.9,0.9,19,0.00,,,0.00,meteobridge,2013-06-03 20:09:00,
2013-06-03 23:14:00,71.1,26.8,29.77,North,0,2.0,2.5,19,0.00,,,0.00,meteobridge,2013-06-03 20:14:00,
2013-06-03 23:19:00,71.1,26.8,29.77,NNE,22,0.9,1.3,19,0.00,,,0.00,meteobridge,2013-06-03 20:19:00,
2013-06-03 23:24:00,70.9,30.2,29.77,NNE,22,0.9,1.3,22,0.00,,,0.00,meteobridge,2013-06-03 20:24:00,
2013-06-03 23:29:00,70.9,30.2,29.77,NNE,22,0.0,1.3,22,0.00,,,0.00,meteobridge,2013-06-03 20:29:00,
2013-06-03 23:35:00,70.7,30.0,29.77,SSW,202,1.3,2.2,22,0.00,,,0.00,meteobridge,2013-06-03 20:35:00,
2013-06-03 23:40:00,70.7,30.0,29.77,SE,135,2.0,3.6,22,0.00,,,0.00,meteobridge,2013-06-03 20:40:00,
2013-06-03 23:45:00,70.7,30.0,29.77,SSE,158,2.7,2.7,22,0.00,,,0.00,meteobridge,2013-06-03 20:45:00,
2013-06-03 23:50:00,70.7,30.0,29.77,South,180,2.0,2.7,22,0.00,,,0.00,meteobridge,2013-06-03 20:50:00,
2013-06-03 23:55:00,70.5,29.8,29.77,South,180,1.6,2.5,22,0.00,,,0.00,meteobridge,2013-06-03 20:55:00,